カタログに戻る

STARLINK-37109

運用中通信SSO
NORAD 68666·PAYLOAD·🇺🇸 United States

打ち上げ Apr 11, 2026 から Vandenberg Space Force Base

Loading…

次のパス (今後24時間)

TLE

最新Source: CelesTrak SupGP

元期: Sep 14, 2026, 21:15 UTC

1 68666C 26077E   26257.88590278 -.00003832  00000+0 -11902-3 0  2573
2 68666  97.2847 127.8152 0001757  94.1205 122.9589 15.33422439    11

AllMySatでSTARLINK-37109をリアルタイム追跡

Download on the App Store